Location: Kielce
(50.8833°N, 20.6167°E)
Time: 22:39:06
(UTC+02:00)

SR - Pass Details

Date: 21 April 2021
Orbit: 573 x 882 km, 66.7° (Epoch: 09 May)

Event Time Altitude Azimuth Distance (km) Brightness Sun altitude
Rises 09:27:22 0° 245° (WSW) 3,377 ? 35.5°
Reaches altitude 10° 09:29:56 10° 253° (WSW) 2,479 ? 35.8°
Maximum altitude 09:35:22 40° 322° (NW) 1,277 ? 36.6°
Drops below altitude 10° 09:40:57 10° 31° (NNE) 2,550 ? 37.3°
Sets 09:43:38 0° 39° (NE) 3,485 ? 37.7°
